Weather History for Tacoma, WA

Change the Weather History Date:

Friday, February 15, 2013

  Actual Average Record
Temperature  
Mean Temperature 44 °F -  
Max Temperature 53 °F 47 °F 59 °F (1997)
Min Temperature 35 °F 30 °F 10 °F (1956)
Degree Days  
Heating Degree Days 21    
Moisture  
Dew Point 41 °F    
Average Humidity 95    
Maximum Humidity 100    
Minimum Humidity 70    
Precipitation  
Precipitation 0.00 in - - ()
Sea Level Pressure  
Sea Level Pressure 30.36 in    
Wind  
Wind Speed 3 mph (NE)    
Max Wind Speed 9 mph    
Max Gust Speed -    
Visibility 7 miles    
Events      
Averages and records for this station are not official NWS values.
T = Trace of Precipitation, MM = Missing Value Source: NWS Daily Summary

Daily Weather History Graph

Daily Weather History Graph

Search for Another Location

Airport:

Trip Planner

Search our weather history database for the weather conditions in past years. The results will help you decide how hot, cold, wet, or windy it might be!

Date:

Astronomy

Feb. 15, 2013 Rise Set
Actual Time 7:14 AM PST 5:34 PM PST
Civil Twilight 6:42 AM PST 6:06 PM PST
Nautical Twilight 6:06 AM PST 6:41 PM PST
Astronomical Twilight 5:31 AM PST 7:17 PM PST
Moon 9:27 AM PST (2/15) No Moon Set
Length of Visible Light 11h 23m
Length of Day
10h 20m
Waxing Crescent, 31% of the Moon is Illuminated
Feb 15
Waxing Crescent
Feb 17
First Quarter
Feb 25
Full
Mar 4
Last Quarter
Mar 11
New

Hourly Weather History & Observations

Time (PST) Temp. Windchill Dew Point Humidity Pressure Visibility Wind Dir Wind Speed Gust Speed Precip Events Conditions
12:54 AM 46.4 °F - 46.4 °F 100% 30.54 in 10.0 mi NNW 2.3 mph - N/A   Overcast
12:58 AM 46.0 °F 44.8 °F 45.7 °F 99% 30.56 in 10.0 mi NNW 3.5 mph - N/A   Overcast
1:58 AM 45.7 °F - 45.5 °F 99% 30.55 in 10.0 mi NNW 1.2 mph - N/A   Overcast
2:10 AM 46.4 °F - 46.4 °F 100% 30.52 in 10.0 mi North 2.3 mph - N/A   Overcast
2:58 AM 45.9 °F 44.6 °F 45.7 °F 99% 30.53 in 10.0 mi ENE 3.5 mph - N/A   Overcast
3:18 AM 46.4 °F 45.2 °F 46.4 °F 100% 30.50 in 10.0 mi NE 3.5 mph - N/A   Overcast
3:20 AM 46.4 °F - 46.4 °F 100% 30.50 in 10.0 mi NNE 2.3 mph - N/A   Overcast
3:55 AM 46.4 °F 45.2 °F 46.4 °F 100% 30.50 in 10.0 mi NE 3.5 mph - N/A   Overcast
3:58 AM 45.9 °F 44.6 °F 45.7 °F 99% 30.52 in 10.0 mi NE 3.5 mph - N/A   Overcast
4:28 AM 46.4 °F 45.2 °F 44.6 °F 93% 30.49 in 10.0 mi NNE 3.5 mph - N/A   Overcast
4:53 AM 44.6 °F 40.7 °F 44.6 °F 100% 30.48 in 8.0 mi NNE 6.9 mph - N/A   Overcast
4:58 AM 45.1 °F 41.4 °F 45.0 °F 99% 30.50 in 9.0 mi NNE 6.9 mph - N/A   Overcast
5:08 AM 44.6 °F 40.7 °F 44.6 °F 100% 30.48 in 10.0 mi North 6.9 mph - N/A   Overcast
5:33 AM 44.6 °F 41.4 °F 44.6 °F 100% 30.48 in 10.0 mi North 5.8 mph - N/A   Overcast
5:58 AM 44.8 °F 40.4 °F 44.6 °F 99% 30.49 in 10.0 mi North 8.1 mph - N/A   Overcast
6:13 AM 44.6 °F 40.7 °F 44.6 °F 100% 30.47 in 10.0 mi North 6.9 mph - N/A   Overcast
6:33 AM 42.8 °F 37.5 °F 42.8 °F 100% 30.47 in 10.0 mi North 9.2 mph - N/A   Overcast
6:43 AM 42.8 °F 38.6 °F 42.8 °F 100% 30.47 in 10.0 mi NNE 6.9 mph - N/A   Overcast
6:58 AM 43.3 °F 40.7 °F 43.2 °F 99% 30.49 in 10.0 mi NNE 4.6 mph - N/A   Overcast
7:28 AM 42.8 °F - 42.8 °F 100% 30.47 in 9.0 mi ESE 2.3 mph - N/A   Overcast
7:38 AM 42.8 °F - 42.8 °F 100% 30.47 in 8.0 mi Calm Calm - N/A   Overcast
7:58 AM 43.0 °F - 42.8 °F 99% 30.48 in 7.0 mi Variable 2.3 mph - N/A   Overcast
8:23 AM 42.8 °F 41.1 °F 42.8 °F 100% 30.46 in 8.0 mi NE 3.5 mph - N/A   Overcast
8:58 AM 43.2 °F 40.5 °F 43.0 °F 99% 30.47 in 9.0 mi Variable 4.6 mph - N/A   Overcast
9:58 AM 43.5 °F 41.9 °F 43.2 °F 99% 30.46 in 10.0 mi NE 3.5 mph - N/A   Overcast
10:23 AM 44.6 °F 41.4 °F 42.8 °F 93% 30.44 in 10.0 mi NNE 5.8 mph - N/A   Overcast
10:43 AM 44.6 °F 43.1 °F 42.8 °F 93% 30.43 in 10.0 mi NE 3.5 mph - N/A   Overcast
10:58 AM 44.4 °F - 42.6 °F 93% 30.45 in 10.0 mi NNE 1.2 mph - N/A   Mostly Cloudy
11:13 AM 46.4 °F 42.9 °F 42.8 °F 87% 30.43 in 10.0 mi Variable 6.9 mph - N/A   Mostly Cloudy
11:38 AM 48.2 °F - 42.8 °F 82% 30.41 in 10.0 mi East 4.6 mph - N/A   Scattered Clouds
11:58 AM 48.2 °F - 42.8 °F 82% 30.42 in 10.0 mi Variable 4.6 mph - N/A   Partly Cloudy
12:58 PM 50.7 °F - 42.8 °F 74% 30.39 in 10.0 mi North 5.8 mph - N/A   Clear
1:58 PM 52.2 °F - 43.0 °F 71% 30.34 in 10.0 mi NE 6.9 mph - N/A   Clear
2:58 PM 52.9 °F - 43.3 °F 70% 30.32 in 10.0 mi North 6.9 mph - N/A   Clear
3:58 PM 53.4 °F - 44.1 °F 71% 30.29 in 10.0 mi North 3.5 mph - N/A   Clear
4:58 PM 52.0 °F - 43.7 °F 73% 30.27 in 10.0 mi NNE 5.8 mph - N/A   Clear
5:58 PM 49.1 °F - 42.6 °F 78% 30.25 in 10.0 mi ENE 2.3 mph - N/A   Clear
6:58 PM 46.8 °F - 41.9 °F 83% 30.25 in 10.0 mi Calm Calm - N/A   Clear
7:58 PM 40.3 °F - 39.0 °F 95% 30.25 in 10.0 mi Calm Calm - N/A   Clear
8:58 PM 39.4 °F - 39.2 °F 99% 30.25 in 6.0 mi Calm Calm - N/A   Clear
9:03 PM 39.2 °F - 39.2 °F 100% 30.23 in 2.5 mi ESE 2.3 mph - N/A   Clear
9:08 PM 39.2 °F 37.0 °F 39.2 °F 100% 30.23 in 3.0 mi ENE 3.5 mph - N/A   Clear
9:58 PM 38.3 °F - 38.1 °F 99% 30.24 in 9.0 mi SE 2.3 mph - N/A   Clear
10:38 PM 37.4 °F - 37.4 °F 100% 30.21 in 1.8 mi Calm Calm - N/A   Clear
10:43 PM 37.4 °F - 37.4 °F 100% 30.20 in 1.2 mi South 2.3 mph - N/A   Clear
10:48 PM 39.2 °F - 37.4 °F 93% 30.20 in 2.5 mi West 1.2 mph - N/A   Clear
10:53 PM 37.4 °F - 37.4 °F 100% 30.21 in 5.0 mi Variable 1.2 mph - N/A   Clear
10:58 PM 38.1 °F - 37.8 °F 99% 30.22 in 2.0 mi Variable 1.2 mph - N/A   Clear
11:03 PM 37.4 °F - 37.4 °F 100% 30.20 in 1.0 mi Calm Calm - N/A   Clear
11:08 PM 37.4 °F - 37.4 °F 100% 30.20 in 1.2 mi Calm Calm - N/A   Clear
11:13 PM 37.4 °F - 37.4 °F 100% 30.20 in 3.0 mi SSW 1.2 mph - N/A   Clear
11:18 PM 35.6 °F - 35.6 °F 100% 30.20 in 1.8 mi South 2.3 mph - N/A   Clear
11:23 PM 35.6 °F 32.8 °F 35.6 °F 100% 30.20 in 1.2 mi South 3.5 mph - N/A   Clear
11:28 PM 35.6 °F - 35.6 °F 100% 30.20 in 1.8 mi SSW 2.3 mph - N/A   Clear
11:33 PM 35.6 °F - 35.6 °F 100% 30.19 in 2.0 mi SSW 2.3 mph - N/A   Clear
11:38 PM 35.6 °F - 33.8 °F 93% 30.19 in 3.0 mi South 2.3 mph - N/A   Clear
11:43 PM 35.6 °F - 35.6 °F 100% 30.19 in 1.5 mi Calm Calm - N/A   Clear
11:48 PM 35.6 °F - 35.6 °F 100% 30.19 in 1.5 mi Calm Calm - N/A   Clear
11:53 PM 37.4 °F - 35.6 °F 93% 30.18 in 1.0 mi Calm Calm - N/A   Clear
11:58 PM 36.5 °F - 36.3 °F 99% 30.20 in 1.0 mi Calm Calm - N/A   Clear